�������l�o���
Date,Time,MP-1(��Sv/h),MP-2(��Sv/h),MP-3(��Sv/h),MP-4(��Sv/h),MP-5(��Sv/h),MP-6(��Sv/h),MP-7(��Sv/h),MP-8(��Sv/h),����,����(m/s),���J
2017/03/19,00:00,1.033,1.693,1.152,2.003,1.384,0.549,1.009,0.933,��,5.9,��
2017/03/19,00:10,1.032,1.693,1.151,2.001,1.387,0.552,1.008,0.934,��,4.5,��
2017/03/19,00:20,1.035,1.693,1.152,2.002,1.385,0.551,1.009,0.935,�쐼,3.3,��
2017/03/19,00:30,1.033,1.692,1.152,2.002,1.386,0.549,1.008,0.937,�쐼,2.3,��
2017/03/19,00:40,1.032,1.691,1.150,2.001,1.385,0.549,1.006,0.934,�쐼,4.3,��
2017/03/19,00:50,1.032,1.692,1.149,1.999,1.388,0.548,1.007,0.934,���쐼,4.5,��
2017/03/19,01:00,1.032,1.691,1.150,2.000,1.385,0.549,1.008,0.933,���쐼,4.6,��
2017/03/19,01:10,1.034,1.691,1.149,2.001,1.386,0.549,1.006,0.935,���쐼,4.3,��
2017/03/19,01:20,1.033,1.691,1.152,1.996,1.385,0.549,1.006,0.934,���쐼,4.7,��
2017/03/19,01:30,1.032,1.696,1.150,1.999,1.386,0.549,1.005,0.934,���쐼,3.9,��
2017/03/19,01:40,1.032,1.691,1.148,2.002,1.384,0.550,1.007,0.933,���쐼,4.4,��
2017/03/19,01:50,1.032,1.692,1.149,2.000,1.386,0.549,1.006,0.934,���쐼,4.7,��
2017/03/19,02:00,1.031,1.689,1.149,1.999,1.385,0.549,1.007,0.934,���쐼,5.5,��
2017/03/19,02:10,1.032,1.692,1.150,1.998,1.385,0.549,1.006,0.935,���쐼,5.5,��
2017/03/19,02:20,1.030,1.694,1.149,2.002,1.387,0.549,1.008,0.934,�쐼,4.0,��
2017/03/19,02:30,1.033,1.691,1.150,2.001,1.385,0.550,1.006,0.933,��,4.3,��
2017/03/19,02:40,1.032,1.692,1.152,1.997,1.386,0.549,1.007,0.933,���k��,5.0,��
2017/03/19,02:50,1.032,1.691,1.152,1.999,1.385,0.548,1.006,0.937,�k��,3.9,��
2017/03/19,03:00,1.033,1.694,1.148,2.001,1.386,0.548,1.008,0.934,�k��,5.1,��
2017/03/19,03:10,1.032,1.693,1.150,1.999,1.385,0.549,1.006,0.935,���k��,7.2,��
2017/03/19,03:20,1.033,1.692,1.152,2.003,1.388,0.549,1.008,0.934,���k��,7.3,��
2017/03/19,03:30,1.031,1.694,1.149,2.000,1.386,0.549,1.007,0.933,���k��,5.8,��
2017/03/19,03:40,1.033,1.693,1.149,2.002,1.385,0.549,1.009,0.935,���k��,6.3,��
2017/03/19,03:50,1.031,1.692,1.151,2.002,1.383,0.550,1.007,0.933,��,4.3,��
2017/03/19,04:00,1.032,1.692,1.149,2.002,1.383,0.549,1.007,0.934,���쐼,3.9,��
2017/03/19,04:10,1.031,1.691,1.151,2.003,1.384,0.549,1.008,0.934,���쐼,3.4,��
2017/03/19,04:20,1.030,1.689,1.150,2.002,1.384,0.549,1.006,0.934,���쐼,5.2,��
2017/03/19,04:30,1.031,1.690,1.151,2.000,1.388,0.547,1.008,0.934,���쐼,4.9,��
2017/03/19,04:40,1.030,1.692,1.147,2.001,1.382,0.548,1.008,0.934,���쐼,4.2,��
2017/03/19,04:50,1.032,1.691,1.150,1.999,1.385,0.550,1.006,0.934,���쐼,3.7,��
2017/03/19,05:00,1.031,1.690,1.149,2.000,1.385,0.548,1.008,0.935,���쐼,2.8,��
2017/03/19,05:10,1.031,1.691,1.148,2.000,1.383,0.548,1.007,0.934,���쐼,2.8,��
2017/03/19,05:20,1.032,1.689,1.146,1.998,1.383,0.548,1.008,0.933,���k��,3.2,��
2017/03/19,05:30,1.029,1.691,1.146,1.999,1.385,0.548,1.006,0.934,���k��,4.6,��
2017/03/19,05:40,1.032,1.690,1.147,1.998,1.382,0.548,1.006,0.932,��,4.1,��
2017/03/19,05:50,1.029,1.694,1.145,2.000,1.382,0.546,1.007,0.934,���k��,4.7,��
2017/03/19,06:00,1.027,1.687,1.148,1.999,1.384,0.548,1.004,0.934,���k��,5.6,��
2017/03/19,06:10,1.028,1.690,1.147,2.001,1.384,0.549,1.005,0.933,���k��,5.7,��
2017/03/19,06:20,1.030,1.690,1.148,1.999,1.384,0.548,1.007,0.934,���k��,6.4,��
2017/03/19,06:30,1.029,1.689,1.148,1.997,1.383,0.548,1.005,0.933,���k��,5.6,��
2017/03/19,06:40,1.030,1.690,1.148,2.001,1.385,0.549,1.006,0.933,���k��,5.2,��
2017/03/19,06:50,1.029,1.690,1.148,2.000,1.385,0.549,1.004,0.934,��,4.9,��
2017/03/19,07:00,1.031,1.690,1.147,2.003,1.384,0.547,1.006,0.933,���k��,4.8,��
2017/03/19,07:10,1.029,1.691,1.149,1.999,1.385,0.549,1.005,0.932,���k��,3.7,��
2017/03/19,07:20,1.029,1.690,1.147,2.000,1.384,0.549,1.006,0.933,���k��,4.6,��
2017/03/19,07:30,1.030,1.692,1.148,2.003,1.385,0.548,1.007,0.934,��,4.8,��
2017/03/19,07:40,1.031,1.694,1.149,2.002,1.386,0.549,1.006,0.934,���k��,4.5,��
2017/03/19,07:50,1.032,1.691,1.149,1.999,1.386,0.549,1.006,0.937,�k��,3.8,��
2017/03/19,08:00,1.033,1.691,1.149,2.003,1.386,0.549,1.008,0.935,�k�k��,3.0,��
2017/03/19,08:10,1.031,1.692,1.150,2.003,1.385,0.549,1.008,0.934,�k,3.2,��
2017/03/19,08:20,1.030,1.695,1.149,2.003,1.386,0.550,1.008,0.936,�k�k��,4.0,��
2017/03/19,08:30,1.032,1.693,1.151,2.004,1.385,0.548,1.009,0.935,�k�k��,4.1,��
2017/03/19,08:40,1.033,1.693,1.150,2.000,1.386,0.548,1.008,0.934,�k�k��,4.9,��
2017/03/19,08:50,1.032,1.696,1.149,2.002,1.386,0.548,1.006,0.934,�k�k��,4.7,��
2017/03/19,09:00,1.034,1.693,1.150,2.004,1.388,0.548,1.008,0.934,�k��,4.6,��
2017/03/19,09:10,1.034,1.693,1.150,2.003,1.390,0.548,1.005,0.937,�k��,4.7,��
2017/03/19,09:20,1.033,1.694,1.153,2.002,1.388,0.548,1.006,0.934,���k��,4.1,��
2017/03/19,09:30,1.033,1.693,1.148,2.001,1.388,0.549,1.005,0.935,�k��,3.2,��
2017/03/19,09:40,1.033,1.691,1.151,2.003,1.389,0.548,1.006,0.936,�k��,4.0,��
2017/03/19,09:50,1.034,1.695,1.149,2.005,1.391,0.549,1.005,0.936,�k��,4.3,��
2017/03/19,10:00,1.031,1.697,1.150,2.003,1.392,0.548,1.003,0.935,�k��,4.0,��
2017/03/19,10:10,1.035,1.698,1.151,2.004,1.390,0.550,1.005,0.936,�k��,4.2,��
2017/03/19,10:20,1.035,1.693,1.150,2.006,1.390,0.550,1.005,0.935,�k��,4.7,��
2017/03/19,10:30,1.031,1.693,1.151,2.007,1.390,0.549,1.005,0.935,�k��,4.8,��
2017/03/19,10:40,1.032,1.695,1.152,2.004,1.387,0.549,1.006,0.933,�k��,4.5,��
2017/03/19,10:50,1.032,1.693,1.152,2.004,1.390,0.551,1.006,0.932,�k��,4.5,��
2017/03/19,11:00,1.034,1.697,1.150,2.005,1.389,0.549,1.005,0.932,�k��,4.6,��
2017/03/19,11:10,1.036,1.696,1.151,2.003,1.388,0.549,1.006,0.933,���k��,3.1,��
2017/03/19,11:20,1.034,1.694,1.152,2.002,1.390,0.549,1.005,0.933,��,2.8,��
2017/03/19,11:30,1.034,1.697,1.151,2.006,1.388,0.551,1.004,0.933,��,2.6,��
2017/03/19,11:40,1.036,1.694,1.154,2.005,1.392,0.549,1.006,0.933,��,3.6,��
2017/03/19,11:50,1.034,1.694,1.152,2.005,1.389,0.548,1.005,0.931,��,3.8,��
2017/03/19,12:00,1.036,1.699,1.154,2.005,1.387,0.549,1.006,0.932,��,3.2,��
2017/03/19,12:10,1.037,1.695,1.154,2.005,1.391,0.550,1.005,0.934,��,2.8,��
2017/03/19,12:20,1.035,1.699,1.153,2.008,1.390,0.550,1.007,0.934,��,3.5,��
2017/03/19,12:30,1.034,1.697,1.153,2.008,1.388,0.551,1.006,0.936,��,3.4,��
2017/03/19,12:40,1.035,1.697,1.155,2.003,1.391,0.548,1.006,0.933,��,3.1,��
2017/03/19,12:50,1.037,1.699,1.153,2.005,1.390,0.549,1.007,0.932,��,3.2,��
2017/03/19,13:00,1.037,1.698,1.156,2.009,1.390,0.549,1.008,0.932,��,3.2,��
2017/03/19,13:10,1.036,1.694,1.154,2.005,1.393,0.550,1.006,0.932,���쓌,2.6,��
2017/03/19,13:20,1.037,1.700,1.156,2.008,1.390,0.550,1.005,0.931,���k��,2.5,��
2017/03/19,13:30,1.033,1.697,1.154,2.006,1.391,0.550,1.004,0.933,��,2.3,��
2017/03/19,13:40,1.036,1.699,1.157,2.006,1.394,0.550,1.006,0.932,��,2.0,��
2017/03/19,13:50,1.037,1.702,1.154,2.008,1.389,0.550,1.005,0.934,���쓌,2.6,��
2017/03/19,14:00,1.037,1.703,1.155,2.006,1.390,0.549,1.005,0.935,���쓌,3.3,��
2017/03/19,14:10,1.038,1.704,1.155,2.009,1.393,0.549,1.006,0.934,���쓌,3.1,��
2017/03/19,14:20,1.037,1.702,1.155,2.004,1.393,0.549,1.004,0.934,��,1.7,��
2017/03/19,14:30,1.037,1.703,1.155,2.005,1.392,0.549,1.006,0.935,�쓌,1.7,��
2017/03/19,14:40,1.036,1.701,1.154,2.005,1.392,0.549,1.007,0.935,�쓌,1.9,��
2017/03/19,14:50,1.037,1.701,1.154,2.006,1.394,0.550,1.005,0.937,��,2.2,��
2017/03/19,15:00,1.036,1.704,1.153,2.003,1.393,0.551,1.006,0.936,��,2.0,��
2017/03/19,15:10,1.036,1.700,1.153,2.008,1.396,0.549,1.006,0.935,�k��,1.7,��
2017/03/19,15:20,1.038,1.701,1.154,2.003,1.395,0.549,1.005,0.937,���k��,1.2,��
2017/03/19,15:30,1.037,1.702,1.155,2.005,1.395,0.551,1.007,0.935,���k��,0.8,��
2017/03/19,15:40,1.040,1.702,1.157,2.003,1.396,0.551,1.007,0.935,�쓌,2.2,��
2017/03/19,15:50,1.038,1.702,1.155,2.007,1.394,0.548,1.007,0.936,��,1.9,��
2017/03/19,16:00,1.038,1.701,1.155,2.007,1.395,0.549,1.008,0.935,��,1.7,��
2017/03/19,16:10,1.037,1.702,1.153,2.005,1.391,0.552,1.006,0.935,��쐼,2.3,��
2017/03/19,16:20,1.038,1.702,1.156,2.008,1.395,0.550,1.007,0.935,��,2.5,��
2017/03/19,16:30,1.037,1.702,1.152,2.005,1.395,0.549,1.005,0.933,��쐼,2.0,��
2017/03/19,16:40,1.038,1.698,1.154,2.006,1.392,0.551,1.007,0.936,��쐼,1.2,��
2017/03/19,16:50,1.036,1.701,1.155,2.007,1.392,0.547,1.007,0.936,��쐼,2.5,��
2017/03/19,17:00,1.037,1.700,1.154,2.005,1.393,0.549,1.007,0.935,��,0.9,��
2017/03/19,17:10,1.036,1.700,1.156,2.009,1.394,0.548,1.007,0.935,�k��,2.6,��
2017/03/19,17:20,1.038,1.696,1.153,2.007,1.394,0.549,1.009,0.935,�k�k��,3.4,��
2017/03/19,17:30,1.036,1.699,1.156,2.006,1.394,0.549,1.007,0.936,�k�k��,4.7,��
2017/03/19,17:40,1.037,1.701,1.153,2.005,1.393,0.548,1.007,0.935,�k��,4.3,��
2017/03/19,17:50,1.039,1.701,1.154,2.009,1.394,0.548,1.008,0.935,�k��,5.2,��
2017/03/19,18:00,1.034,1.701,1.155,2.007,1.394,0.549,1.010,0.935,���k��,5.5,��
2017/03/19,18:10,1.037,1.701,1.154,2.008,1.393,0.549,1.009,0.936,���k��,7.3,��
2017/03/19,18:20,1.038,1.699,1.155,2.005,1.392,0.550,1.007,0.934,���k��,6.8,��
2017/03/19,18:30,1.037,1.698,1.155,2.008,1.395,0.549,1.008,0.933,���k��,6.2,��
2017/03/19,18:40,1.036,1.699,1.154,2.009,1.392,0.549,1.008,0.935,�k��,5.8,��
2017/03/19,18:50,1.037,1.698,1.154,2.010,1.392,0.549,1.006,0.935,�k��,7.7,��
2017/03/19,19:00,1.037,1.699,1.154,2.007,1.397,0.548,1.007,0.936,�k��,7.4,��
2017/03/19,19:10,1.036,1.699,1.153,2.006,1.394,0.549,1.008,0.934,�k�k��,6.0,��
2017/03/19,19:20,1.037,1.699,1.154,2.007,1.396,0.549,1.007,0.935,�k�k��,5.1,��
2017/03/19,19:30,1.036,1.701,1.155,2.007,1.395,0.549,1.008,0.935,�k�k��,7.0,��
2017/03/19,19:40,1.037,1.700,1.155,2.008,1.391,0.549,1.009,0.934,�k�k��,6.9,��
2017/03/19,19:50,1.034,1.701,1.152,2.004,1.393,0.549,1.008,0.935,�k�k��,7.8,��
2017/03/19,20:00,1.035,1.700,1.153,2.007,1.394,0.548,1.008,0.934,�k�k��,7.7,��
2017/03/19,20:10,1.035,1.698,1.151,2.007,1.395,0.549,1.008,0.935,�k�k��,7.7,��
2017/03/19,20:20,1.035,1.701,1.154,2.006,1.391,0.550,1.007,0.937,�k�k��,6.6,��
2017/03/19,20:30,1.035,1.697,1.152,2.004,1.390,0.547,1.009,0.935,�k��,5.1,��
2017/03/19,20:40,1.036,1.700,1.153,2.006,1.393,0.548,1.008,0.935,�k��,4.7,��
2017/03/19,20:50,1.033,1.696,1.152,2.007,1.390,0.548,1.008,0.936,�k��,4.1,��
2017/03/19,21:00,1.034,1.697,1.150,2.004,1.392,0.548,1.005,0.934,���k��,3.0,��
2017/03/19,21:10,1.033,1.698,1.150,2.003,1.393,0.548,1.006,0.935,���k��,3.8,��
2017/03/19,21:20,1.035,1.697,1.153,2.003,1.392,0.548,1.006,0.933,���k��,4.2,��
2017/03/19,21:30,1.033,1.698,1.151,2.005,1.393,0.548,1.006,0.934,��,4.3,��
2017/03/19,21:40,1.034,1.699,1.153,2.005,1.392,0.548,1.006,0.932,��,4.3,��
2017/03/19,21:50,1.032,1.699,1.151,2.003,1.392,0.547,1.006,0.934,��,4.8,��
2017/03/19,22:00,1.033,1.698,1.151,2.005,1.390,0.547,1.005,0.935,��,5.2,��
2017/03/19,22:10,1.032,1.698,1.151,2.004,1.391,0.548,1.007,0.934,��,5.5,��
2017/03/19,22:20,1.033,1.697,1.150,2.004,1.392,0.548,1.005,0.933,��,5.1,��
2017/03/19,22:30,1.034,1.698,1.150,2.006,1.393,0.549,1.007,0.934,���k��,5.7,��
2017/03/19,22:40,1.032,1.697,1.150,2.005,1.392,0.549,1.005,0.934,��,5.0,��
2017/03/19,22:50,1.033,1.697,1.151,2.005,1.390,0.546,1.004,0.934,��,5.2,��
2017/03/19,23:00,1.032,1.698,1.148,2.004,1.390,0.549,1.005,0.933,��,6.2,��
2017/03/19,23:10,1.032,1.698,1.151,2.005,1.390,0.548,1.007,0.935,���쐼,6.3,��
2017/03/19,23:20,1.032,1.697,1.149,2.005,1.389,0.549,1.007,0.934,��,5.7,��
2017/03/19,23:30,1.033,1.695,1.150,2.006,1.392,0.547,1.005,0.934,��,4.2,��
2017/03/19,23:40,1.033,1.699,1.149,2.005,1.389,0.547,1.006,0.932,���k��,4.4,��
2017/03/19,23:50,1.031,1.694,1.149,2.003,1.391,0.547,1.005,0.933,���k��,3.0,��
